Weather History for Madisonville, KY

Change the Weather History Date:

Friday, May 11, 2012

  Actual Average (KOWB) Record (KOWB)
Temperature  
Mean Temperature 60 °F -  
Max Temperature 76 °F 77 °F 90 °F (2011)
Min Temperature 45 °F 53 °F 33 °F (1990)
Degree Days  
Heating Degree Days 4    
Growing Degree Days 10 (Base 50)    
Moisture  
Dew Point 51 °F    
Average Humidity 71    
Maximum Humidity 100    
Minimum Humidity 41    
Precipitation  
Precipitation 0.00 in - - ()
Sea Level Pressure  
Sea Level Pressure 30.13 in    
Wind  
Wind Speed 2 mph ()    
Max Wind Speed 13 mph    
Max Gust Speed 21 mph    
Visibility 10.0 miles    
Events      
Averages and records for this station are not official NWS values.
T = Trace of Precipitation, MM = Missing Value Source: Averaged Metar Reports

Daily Weather History Graph

Daily Weather History Graph

Search for Another Location

Airport:

Trip Planner

Search our weather history database for the weather conditions in past years. The results will help you decide how hot, cold, wet, or windy it might be!

Date:

Astronomy

May. 11, 2012 Rise Set
Actual Time 5:43 AM CDT 7:48 PM CDT
Civil Twilight 5:14 AM CDT 8:17 PM CDT
Nautical Twilight 4:39 AM CDT 8:52 PM CDT
Astronomical Twilight 4:01 AM CDT 9:31 PM CDT
Moon 12:28 AM CDT (5/11) 11:14 AM CDT (5/11)
Length of Visible Light 15h 02m
Length of Day
14h 04m
Waning Gibbous, 63% of the Moon is Illuminated
May 11
Waning Gibbous
May 12
Last Quarter
May 20
New
May 28
First Quarter
Jun 4
Full

Hourly Weather History & Observations

Time (CDT) Temp. Windchill Dew Point Humidity Pressure Visibility Wind Dir Wind Speed Gust Speed Precip Events Conditions
12:15 AM 50.0 °F - 50.0 °F 100% 30.06 in 10.0 mi Calm Calm - N/A   Clear
12:35 AM 50.2 °F - 49.3 °F 97% 30.06 in 10.0 mi Calm Calm - N/A   Clear
12:55 AM 48.7 °F - 48.7 °F 100% 30.06 in 10.0 mi Calm Calm - N/A   Clear
1:15 AM 50.0 °F - 48.9 °F 96% 30.06 in 10.0 mi Calm Calm - N/A   Clear
1:35 AM 48.4 °F - 48.4 °F 100% 30.06 in 10.0 mi Calm Calm - N/A   Clear
1:55 AM 48.4 °F - 48.4 °F 100% 30.05 in 10.0 mi Calm Calm - N/A   Clear
2:15 AM 47.8 °F - 47.8 °F 100% 30.05 in 10.0 mi Calm Calm - N/A   Clear
2:35 AM 47.7 °F - 47.7 °F 100% 30.05 in 10.0 mi Calm Calm - N/A   Clear
2:55 AM 47.1 °F - 47.1 °F 100% 30.06 in 10.0 mi Calm Calm - N/A   Clear
3:15 AM 46.0 °F - 46.0 °F 100% 30.06 in 10.0 mi Calm Calm - N/A   Clear
3:35 AM 45.5 °F - 45.5 °F 100% 30.06 in 10.0 mi Calm Calm - N/A   Clear
3:55 AM 45.9 °F - 45.9 °F 100% 30.07 in 10.0 mi Calm Calm - N/A   Clear
4:15 AM 46.4 °F 45.2 °F 46.4 °F 100% 30.08 in 10.0 mi SW 3.5 mph - N/A   Clear
4:35 AM 45.0 °F - 45.0 °F 100% 30.09 in 10.0 mi Calm Calm - N/A   Clear
4:55 AM 45.7 °F - 45.7 °F 100% 30.09 in 10.0 mi Calm Calm - N/A   Clear
5:15 AM 45.5 °F - 45.5 °F 100% 30.09 in 10.0 mi Calm Calm - N/A   Clear
5:35 AM 45.3 °F - 45.3 °F 100% 30.10 in 10.0 mi Calm Calm - N/A   Clear
5:55 AM 45.7 °F - 45.7 °F 100% 30.11 in 10.0 mi Calm Calm - N/A   Clear
6:15 AM 45.5 °F - 45.5 °F 100% 30.11 in 10.0 mi Calm Calm - N/A   Clear
6:35 AM 46.9 °F - 46.9 °F 100% 30.12 in 10.0 mi Calm Calm - N/A   Clear
6:55 AM 49.3 °F - 49.3 °F 100% 30.13 in 10.0 mi Calm Calm - N/A   Clear
7:15 AM 51.1 °F - 51.1 °F 100% 30.14 in 10.0 mi Calm Calm - N/A   Clear
7:35 AM 54.3 °F - 52.9 °F 95% 30.15 in 10.0 mi Calm Calm - N/A   Clear
7:55 AM 56.1 °F - 52.3 °F 87% 30.16 in 10.0 mi Calm Calm - N/A   Clear
8:15 AM 59.0 °F - 52.3 °F 79% 30.17 in 10.0 mi Calm Calm - N/A   Clear
8:35 AM 61.9 °F - 53.2 °F 73% 30.17 in 10.0 mi South 3.5 mph - N/A   Clear
8:55 AM 64.2 °F - 53.1 °F 67% 30.18 in 10.0 mi SE 3.5 mph - N/A   Clear
9:15 AM 66.6 °F - 54.1 °F 64% 30.17 in 10.0 mi SE 4.6 mph - N/A   Clear
9:35 AM 67.8 °F - 51.4 °F 56% 30.16 in 10.0 mi SE 6.9 mph - N/A   Clear
9:55 AM 69.4 °F - 50.0 °F 50% 30.16 in 10.0 mi ESE 9.2 mph - N/A   Clear
10:15 AM 70.2 °F - 48.0 °F 45% 30.15 in 10.0 mi SE 11.5 mph 16.1 mph N/A   Clear
10:35 AM 71.2 °F - 48.4 °F 44% 30.16 in 10.0 mi ESE 6.9 mph 20.7 mph N/A   Clear
10:55 AM 71.4 °F - 48.6 °F 44% 30.16 in 10.0 mi SE 6.9 mph 10.4 mph N/A   Clear
11:15 AM 72.1 °F - 48.6 °F 43% 30.16 in 10.0 mi ESE 10.4 mph - N/A   Clear
11:35 AM 72.3 °F - 49.3 °F 44% 30.15 in 10.0 mi ESE 10.4 mph 16.1 mph N/A   Clear
11:55 AM 72.9 °F - 50.2 °F 45% 30.15 in 10.0 mi SE 8.1 mph - N/A   Clear
12:15 PM 73.2 °F - 49.5 °F 43% 30.15 in 10.0 mi ESE 11.5 mph 17.3 mph N/A   Clear
12:35 PM 73.6 °F - 49.5 °F 43% 30.14 in 10.0 mi East 11.5 mph 18.4 mph N/A   Clear
12:55 PM 73.9 °F - 50.2 °F 43% 30.15 in 10.0 mi SE 8.1 mph - N/A   Clear
1:15 PM 74.1 °F - 50.2 °F 43% 30.15 in 10.0 mi SE 9.2 mph - N/A   Clear
1:35 PM 75.0 °F - 50.4 °F 42% 30.15 in 10.0 mi South 8.1 mph - N/A   Clear
1:55 PM 76.3 °F - 51.6 °F 42% 30.14 in 10.0 mi East 12.7 mph 18.4 mph N/A   Clear
2:15 PM 75.4 °F - 49.8 °F 41% 30.15 in 10.0 mi ENE 5.8 mph 18.4 mph N/A   Clear
2:35 PM 75.9 °F - 51.3 °F 42% 30.15 in 10.0 mi East 9.2 mph - N/A   Clear
2:55 PM 76.1 °F - 51.1 °F 41% 30.16 in 10.0 mi ESE 6.9 mph - N/A   Clear
3:15 PM 76.3 °F - 51.4 °F 42% 30.15 in 10.0 mi SE 5.8 mph - N/A   Clear
3:35 PM 76.6 °F - 51.4 °F 41% 30.14 in 10.0 mi ESE 8.1 mph - N/A   Clear
3:55 PM 76.1 °F - 51.1 °F 41% 30.14 in 10.0 mi SE 4.6 mph - N/A   Clear
4:15 PM 76.3 °F - 51.1 °F 41% 30.14 in 10.0 mi ESE 5.8 mph - N/A   Clear
4:35 PM 75.7 °F - 50.5 °F 41% 30.13 in 10.0 mi SE 6.9 mph - N/A   Clear
4:55 PM 75.6 °F - 51.4 °F 43% 30.13 in 10.0 mi Calm Calm - N/A   Clear
5:15 PM 75.2 °F - 50.7 °F 42% 30.13 in 10.0 mi SE 6.9 mph - N/A   Clear
5:35 PM 74.8 °F - 50.4 °F 42% 30.13 in 10.0 mi ESE 5.8 mph - N/A   Clear
5:55 PM 74.5 °F - 51.3 °F 44% 30.13 in 10.0 mi SE 4.6 mph - N/A   Clear
6:35 PM 73.0 °F - 51.8 °F 47% 30.13 in 10.0 mi SE 3.5 mph - N/A   Clear
6:55 PM 72.3 °F - 52.7 °F 50% 30.13 in 10.0 mi SE 3.5 mph - N/A   Clear
7:15 PM 71.4 °F - 53.8 °F 54% 30.13 in 10.0 mi Calm Calm - N/A   Clear
7:35 PM 70.9 °F - 54.1 °F 55% 30.13 in 10.0 mi Calm Calm - N/A   Clear
7:55 PM 68.5 °F - 55.6 °F 63% 30.13 in 10.0 mi Calm Calm - N/A   Clear
8:15 PM 67.3 °F - 55.9 °F 67% 30.14 in 10.0 mi ESE 3.5 mph - N/A   Clear
8:35 PM 67.5 °F - 55.2 °F 65% 30.15 in 10.0 mi Calm Calm - N/A   Clear
8:55 PM 64.8 °F - 56.5 °F 74% 30.16 in 10.0 mi Calm Calm - N/A   Clear
9:15 PM 62.8 °F - 56.8 °F 81% 30.15 in 10.0 mi ESE 3.5 mph - N/A   Clear
9:35 PM 63.3 °F - 56.5 °F 78% 30.16 in 10.0 mi Calm Calm - N/A   Clear
9:55 PM 61.0 °F - 56.8 °F 86% 30.16 in 10.0 mi Calm Calm - N/A   Clear
10:15 PM 59.9 °F - 56.7 °F 89% 30.17 in 10.0 mi Calm Calm - N/A   Clear
10:35 PM 61.0 °F - 56.3 °F 85% 30.17 in 10.0 mi Calm Calm - N/A   Clear
10:55 PM 59.4 °F - 57.2 °F 93% 30.17 in 10.0 mi Calm Calm - N/A   Clear
11:15 PM 59.5 °F - 56.1 °F 88% 30.17 in 10.0 mi Calm Calm - N/A   Clear
11:35 PM 58.8 °F - 56.8 °F 93% 30.17 in 10.0 mi Calm Calm - N/A   Clear
11:55 PM 59.2 °F - 57.0 °F 93% 30.18 in 10.0 mi Calm Calm - N/A   Clear